sat.trackr.live / text

‹ back to catalog

STARLINK-4207

NORAD 52871 · 2022-062AT

PAYLOAD ACTIVE UNKNOWN

§ Identity

Operator
Country
US
Launch date
2022-06-17
Launch site
AFETR
Launch vehicle
Mass (kg)
RCS (m²)

Purposes: comms

External: N2YO · Heavens-Above · Gunter

§ Orbital elements

Epoch: 2026-09-19T11:49:37.128576Z

Period
93.85 min
Inclination
53.1596°
Eccentricity
0.0001058
Mean motion
15.34396737 rev/d
Perigee alt
462.0 km
Apogee alt
463.4 km
Semi-major
6,840.8 km
B*
-7.8491e-5
RAAN
208.4801°
Arg perigee
84.9415°
Mean anomaly
275.1708°
Rev number
23,553

§ Raw data

STARLINK-42071 52871U 22062AT  26262.49279084 -.00003027  00000+0 -78491-4 0  99922 52871  53.1596 208.4801 0001058  84.9415 275.1708 15.34396737235538

JSON: /api/v1/satellites/52871 · /tle

For live sub-satellite position, see the globe view (requires WebGL).

§ Visibility from observer

Set your observer location to see the next 7 days of passes ≥ 10°. The values pass through the URL so the page stays shareable.

No JS? Fill the form by hand. The geolocation button needs JavaScript.